Powrót do katalogu

STARLINK-32678

AktywnyŁącznośćVLEO
NORAD 62309·PAYLOAD·🇺🇸 United States

Wystrzelony Dec 13, 2024 z Vandenberg Space Force Base

Loading…

Następne Przeloty (najbliższe 24 godziny)

TLE

ŚwieżeSource: CelesTrak SupGP

Epoka: Sep 15, 2026, 02:21 UTC

1 62309C 24239J   26258.09840278  .00102920  00000+0  20502-2 0  2583
2 62309  53.1533  14.8297 0002148 276.0849 120.1242 15.46252405    11

Śledź STARLINK-32678 w czasie rzeczywistym z AllMySat

Download on the App Store